Flag for Germany Weather past 2 weeks in Dillenburg, Hesse, Germany

Now
50 °F

Fog.


Feels Like: 46 °F
Forecast: 43 / 51 °F
Wind: 9 mph from Southwest

Location: Hessen

Current Time: Apr 26, 2015 at 9:00:52 AM

Latest Report: Apr 26, 2015 at 8:20 AM


Visibility: 2 mi

Pressure: 29.77 "Hg

Humidity: 100%

Dew point: 50 °F

Location of DillenburgLocation

Historic Weather in Dillenburg — Graph

°F

Dillenburg temperature yesterday

Maximum temperature yesterday: 55 °F (at 2:50 PM)
Minimum temperature yesterday: 50 °F (at 8:20 PM)
Average temperature yesterday: 52 °F

Past Weeks' High & Low Weather Summary

 TemperatureHumidityPressure
High70 °F (Apr 15, 3:50 PM)100% (Apr 13, 8:50 AM)30.42 "Hg (Apr 13, 8:50 AM)
Low37 °F (Apr 12, 7:20 AM)30% (Apr 21, 1:20 PM)29.77 "Hg (Apr 25, 3:20 PM)
Average53 °F57%30.15 "Hg
* Reported Apr 11 7:20 AM — Apr 26 7:50 AM, Dillenburg, Weather by CustomWeather, © 2015

Note: Actual official high and low records may vary slightly from our data, if they occured in-between our weather recording intervals... More about our weather records

Advertising

Dillenburg weather history for previous 24 hours

 ConditionsComfort  
Time TempWeatherWind HumidityBarometerVisibility
7:50 AM
Sun, Apr 26
50 °FFog.10 mph100%29.77 "Hg2 mi
8:50 PM
Sat, Apr 25
50 °FScattered clouds.7 mph100%29.80 "HgN/A
8:20 PM50 °FScattered clouds.7 mph100%29.80 "HgN/A
7:50 PM52 °FScattered clouds.9 mph94%29.77 "HgN/A
7:20 PM52 °FScattered showers. Scattered clouds.6 mph94%29.80 "HgN/A
6:50 PM52 °FBroken clouds.7 mph94%29.80 "HgN/A
6:20 PM52 °FBroken clouds.9 mph94%29.80 "HgN/A
5:50 PM52 °FPartly sunny.8 mph94%29.77 "HgN/A
5:20 PM52 °FSprinkles. Partly sunny.9 mph94%29.77 "HgN/A
4:50 PM52 °FSprinkles. Broken clouds.14 mph100%29.77 "Hg5 mi
3:50 PM54 °FSprinkles. Partly sunny.10 mph88%29.77 "HgN/A
3:20 PM54 °FSprinkles. Partly sunny.12 mph88%29.77 "HgN/A
2:50 PM55 °FPartly sunny.14 mph82%29.80 "HgN/A
2:20 PM54 °FPartly sunny.12 mph88%29.80 "HgN/A
1:50 PM54 °FPartly sunny.10 mph88%29.80 "HgN/A
1:20 PM52 °FPartly sunny.7 mph94%29.80 "HgN/A
12:50 PM52 °FLight rain. Broken clouds.10 mph94%29.80 "HgN/A
12:20 PM52 °FLight rain. Broken clouds.12 mph100%29.83 "HgN/A
11:50 AM52 °FLight rain. Broken clouds.13 mph94%29.83 "Hg5 mi
11:20 AM52 °FDrizzle. Partly sunny.14 mph94%29.83 "Hg4 mi
10:50 AM52 °FRain. Mostly cloudy.9 mph88%29.83 "Hg5 mi
10:20 AM54 °FLight rain. Partly sunny.12 mph82%29.83 "HgN/A
9:50 AM54 °FLight rain. Broken clouds.10 mph77%29.83 "HgN/A
9:20 AM54 °FPartly sunny.6 mph77%29.83 "HgN/A
Weather by CustomWeather, © 2015

See weather overviewHow to use our weather pages